When you browse on this site, cookies collect data to enhance your experience and personalize the content and advertising you see.
Visit our Privacy Policy to learn more. By continuing to use the site, you agree to this use of cookies and data.
  • In Hungary
  • List of Countries
  • For 7 days
  • Water Temperature
  • Weather Map
  • News
  • Weather Widgets
  • user-avatar
    Login

    Hourly Weather Eldersburg

    Today, 15 November, Friday

    Time Temperature Precipitation Wind Pressure Humidity
    00:00 +1°C° 0 mm 1 mps 753 mmHg 56%
    01:00 -1°C° 0 mm 0 mps 753 mmHg 55%
    02:00 0°C° 0 mm 1 mps 752 mmHg 55%
    03:00 +1°C° 0 mm 1 mps 752 mmHg 55%
    04:00 +1°C° 0 mm 1 mps 752 mmHg 55%
    05:00 +1°C° 0 mm 1 mps 752 mmHg 56%
    06:00 -1°C° 0 mm 2 mps 752 mmHg 57%
    07:00 +1°C° 0 mm 2 mps 753 mmHg 58%
    08:00 +2°C° 0 mm 2 mps 753 mmHg 55%
    09:00 +3°C° 0 mm 3 mps 753 mmHg 53%
    10:00 +5°C° 0 mm 3 mps 753 mmHg 50%
    11:00 +7°C° 0 mm 3 mps 752 mmHg 50%
    12:00 +7°C° 0 mm 3 mps 752 mmHg 50%
    13:00 +8°C° 0 mm 3 mps 751 mmHg 51%
    14:00 +8°C° 0 mm 3 mps 751 mmHg 54%
    15:00 +7°C° 0 mm 2 mps 751 mmHg 58%
    16:00 +7°C° 0 mm 2 mps 750 mmHg 61%
    17:00 +6°C° 0 mm 2 mps 751 mmHg 64%
    18:00 +4°C° 0 mm 2 mps 751 mmHg 67%
    19:00 +3°C° 0 mm 2 mps 752 mmHg 70%
    20:00 +1°C° 0 mm 3 mps 752 mmHg 69%
    21:00 0°C° 0 mm 4 mps 752 mmHg 68%
    22:00 0°C° 0 mm 5 mps 752 mmHg 68%
    23:00 -1°C° 0 mm 5 mps 752 mmHg 71%

    Tomorrow, 16 November, Saturday

    Time Temperature Precipitation Wind Pressure Humidity
    00:00 -1°C° 0 mm 5 mps 752 mmHg 74%
    01:00 -2°C° 0 mm 6 mps 752 mmHg 77%
    02:00 -2°C° 0 mm 5 mps 752 mmHg 78%
    03:00 -4°C° 0 mm 5 mps 752 mmHg 78%
    04:00 -3°C° 0 mm 4 mps 752 mmHg 79%
    05:00 -4°C° 0 mm 4 mps 753 mmHg 75%
    06:00 -5°C° 0 mm 5 mps 754 mmHg 72%
    07:00 -6°C° 0 mm 5 mps 754 mmHg 69%
    08:00 -5°C° 0 mm 5 mps 755 mmHg 60%
    09:00 -4°C° 0 mm 6 mps 755 mmHg 50%
    10:00 -3°C° 0 mm 6 mps 755 mmHg 40%
    11:00 -2°C° 0 mm 6 mps 755 mmHg 36%
    12:00 0°C° 0 mm 5 mps 755 mmHg 32%
    13:00 +1°C° 0 mm 5 mps 755 mmHg 27%
    14:00 +1°C° 0 mm 5 mps 755 mmHg 29%
    15:00 0°C° 0 mm 5 mps 754 mmHg 31%
    16:00 0°C° 0 mm 4 mps 754 mmHg 32%
    17:00 -1°C° 0 mm 4 mps 754 mmHg 35%
    18:00 -2°C° 0 mm 4 mps 755 mmHg 37%
    19:00 -4°C° 0 mm 3 mps 755 mmHg 40%
    20:00 -4°C° 0 mm 3 mps 755 mmHg 41%
    21:00 -4°C° 0 mm 3 mps 755 mmHg 42%
    22:00 -5°C° 0 mm 3 mps 755 mmHg 42%
    23:00 -5°C° 0 mm 3 mps 754 mmHg 43%

    Day after tomorrow, 17 November, Sunday

    Time Temperature Precipitation Wind Pressure Humidity
    00:00 -5°C° 0 mm 3 mps 754 mmHg 44%
    01:00 -5°C° 0 mm 3 mps 753 mmHg 45%
    02:00 -5°C° 0 mm 4 mps 753 mmHg 47%
    03:00 -5°C° 0 mm 4 mps 753 mmHg 48%
    04:00 -5°C° 0 mm 4 mps 752 mmHg 49%
    05:00 -5°C° 0 mm 4 mps 752 mmHg 51%
    06:00 -5°C° 0 mm 4 mps 752 mmHg 52%
    07:00 -5°C° 0 mm 4 mps 753 mmHg 54%
    08:00 -4°C° 0 mm 4 mps 752 mmHg 54%
    09:00 -3°C° 0 mm 4 mps 752 mmHg 54%
    10:00 -1°C° 0 mm 4 mps 752 mmHg 54%
    11:00 0°C° 0 mm 4 mps 751 mmHg 55%
    12:00 +1°C° 0 mm 4 mps 750 mmHg 57%
    13:00 +4°C° 0 mm 4 mps 750 mmHg 58%
    14:00 +4°C° 0 mm 4 mps 749 mmHg 61%
    15:00 +4°C° 0 mm 4 mps 749 mmHg 64%
    16:00 +4°C° 0 mm 4 mps 748 mmHg 67%
    17:00 +3°C° 0 mm 4 mps 748 mmHg 69%
    18:00 +3°C° 0 mm 4 mps 748 mmHg 72%
    19:00 +1°C° 0 mm 4 mps 748 mmHg 74%
    20:00 +1°C° 0 mm 4 mps 747 mmHg 75%
    21:00 0°C° 0 mm 4 mps 747 mmHg 76%
    22:00 0°C° 0 mm 4 mps 747 mmHg 77%
    23:00 +1°C° 0 mm 3 mps 746 mmHg 77%

    18 November, Monday

    Time Temperature Precipitation Wind Pressure Humidity
    00:00 +1°C° 0 mm 3 mps 746 mmHg 76%
    01:00 +1°C° 0 mm 3 mps 745 mmHg 76%
    02:00 +1°C° 0 mm 3 mps 745 mmHg 77%
    03:00 +1°C° 0 mm 3 mps 744 mmHg 77%
    04:00 +1°C° 0 mm 3 mps 744 mmHg 78%
    05:00 +1°C° 0 mm 3 mps 744 mmHg 79%
    06:00 +2°C° 0 mm 2 mps 744 mmHg 79%
    07:00 +1°C° 0 mm 2 mps 743 mmHg 80%
    08:00 +2°C° 0 mm 2 mps 743 mmHg 79%
    09:00 +2°C° 0 mm 2 mps 743 mmHg 78%
    10:00 +3°C° 0 mm 2 mps 743 mmHg 76%
    11:00 +5°C° 0 mm 1 mps 742 mmHg 74%
    12:00 +7°C° 0 mm 1 mps 742 mmHg 71%
    13:00 +8°C° 0 mm 1 mps 741 mmHg 69%
    14:00 +8°C° 0 mm 1 mps 741 mmHg 71%
    15:00 +8°C° 0 mm 1 mps 741 mmHg 73%
    16:00 +7°C° 0 mm 0 mps 741 mmHg 76%
    17:00 +6°C° 0 mm 0 mps 741 mmHg 79%
    18:00 +5°C° 0 mm 0 mps 741 mmHg 83%
    19:00 +3°C° 0 mm 0 mps 741 mmHg 87%
    20:00 +4°C° 0 mm 1 mps 741 mmHg 86%
    21:00 +4°C° 0 mm 1 mps 741 mmHg 86%
    22:00 +4°C° 0 mm 1 mps 741 mmHg 86%
    23:00 +3°C° 0 mm 2 mps 741 mmHg 87%

    19 November, Tuesday

    Time Temperature Precipitation Wind Pressure Humidity
    00:00 +2°C° 0 mm 2 mps 741 mmHg 87%
    01:00 +2°C° 0 mm 2 mps 741 mmHg 87%
    02:00 +2°C° 0 mm 2 mps 741 mmHg 85%
    03:00 +3°C° 0 mm 2 mps 741 mmHg 84%
    04:00 +3°C° 0 mm 2 mps 742 mmHg 82%
    05:00 +3°C° 0 mm 2 mps 742 mmHg 83%
    06:00 +3°C° 0 mm 2 mps 742 mmHg 84%
    07:00 +3°C° 0 mm 2 mps 743 mmHg 85%
    08:00 +4°C° 0 mm 2 mps 743 mmHg 79%
    09:00 +6°C° 0 mm 2 mps 743 mmHg 73%
    10:00 +8°C° 0 mm 2 mps 743 mmHg 67%
    11:00 +8°C° 0 mm 2 mps 743 mmHg 63%
    12:00 +9°C° 0 mm 3 mps 743 mmHg 59%
    13:00 +10°C° 0 mm 3 mps 743 mmHg 55%
    14:00 +10°C° 0 mm 3 mps 743 mmHg 57%
    15:00 +9°C° 0 mm 2 mps 743 mmHg 60%
    16:00 +9°C° 0 mm 2 mps 744 mmHg 62%
    17:00 +8°C° 0 mm 2 mps 744 mmHg 64%
    18:00 +7°C° 0 mm 2 mps 744 mmHg 65%
    19:00 +7°C° 0 mm 1 mps 744 mmHg 67%
    20:00 +6°C° 0 mm 2 mps 745 mmHg 70%
    21:00 +6°C° 0 mm 2 mps 745 mmHg 73%
    22:00 +6°C° 0 mm 2 mps 746 mmHg 76%
    23:00 +5°C° 0 mm 2 mps 746 mmHg 79%

    20 November, Wednesday

    Time Temperature Precipitation Wind Pressure Humidity
    00:00 +5°C° 0 mm 2 mps 746 mmHg 81%
    01:00 +4°C° 0 mm 2 mps 746 mmHg 84%
    02:00 +4°C° 0 mm 2 mps 746 mmHg 84%
    03:00 +4°C° 0 mm 2 mps 746 mmHg 84%
    04:00 +4°C° 0 mm 2 mps 747 mmHg 84%
    05:00 +4°C° 0 mm 2 mps 747 mmHg 85%
    06:00 +4°C° 0 mm 2 mps 747 mmHg 87%
    07:00 +5°C° 0 mm 1 mps 748 mmHg 88%
    08:00 +5°C° 0 mm 2 mps 748 mmHg 82%
    09:00 +7°C° 0 mm 2 mps 748 mmHg 76%
    10:00 +9°C° 0 mm 3 mps 749 mmHg 71%
    11:00 +10°C° 0 mm 3 mps 749 mmHg 68%
    12:00 +10°C° 0 mm 4 mps 748 mmHg 65%
    13:00 +11°C° 0 mm 4 mps 748 mmHg 62%
    14:00 +11°C° 0 mm 3 mps 748 mmHg 64%
    15:00 +11°C° 0 mm 3 mps 748 mmHg 65%
    16:00 +12°C° 0 mm 2 mps 748 mmHg 67%
    17:00 +10°C° 0 mm 2 mps 749 mmHg 70%
    18:00 +9°C° 0 mm 2 mps 749 mmHg 74%
    19:00 +9°C° 0 mm 1 mps 749 mmHg 77%
    20:00 +8°C° 0 mm 1 mps 749 mmHg 79%
    21:00 +8°C° 0 mm 1 mps 749 mmHg 80%
    22:00 +8°C° 0 mm 1 mps 750 mmHg 82%
    23:00 +8°C° 0 mm 1 mps 749 mmHg 83%
    Show more